Tracking 31027 objects as of 19-Jul-2025
HD Live streaming from Space Station
objects crossing your sky now

DMSP 5D-2 F14 DEB

Track DMSP 5D-2 F14 DEB now!
10-day predictions


NORAD ID: 62943
Int'l Code: 1997-012P
Perigee: 778.4 km
Apogee: 855.9 km
Inclination: 98.7 °
Period: 101.1 minutes
Semi major axis: 7188 km
RCS: Unknown
Launch date: April 4, 1997
Source: United States (US)
Launch site: AIR FORCE WESTERN TEST RANGE (AFWTR)

Note: This is SATELLITE DEBRIS
Your satellite tracking list
SL-8 DEB
Track 1 satellite(s)




NASA's NSSDC Master Catalog

Two Line Element Set (TLE):
1 62943U 97012P   25199.83348882  .00038782  00000-0  16390-1 0  9991
2 62943  98.7131 243.7645 0053926 110.0325 250.6670 14.24558092461066
Source of the keplerian elements: AFSPC